Time,TemperatureF,DewpointF,PressureIn,WindDirection,WindDirectionDegrees,WindSpeedMPH,WindSpeedGustMPH,Humidity,HourlyPrecipIn,Conditions,Clouds,dailyrainin,SoftwareType,DateUTC
2013-04-07 00:00:00,53.0,24.6,30.09,SW,224,2.0,4.0,33,0.00,CLR,,0.00,WeatherDisplay:10.37,2013-04-07 07:00:00,
2013-04-07 00:10:00,53.0,24.6,30.09,WNW,291,3.0,5.0,33,0.00,CLR,,0.00,WeatherDisplay:10.37,2013-04-07 07:10:00,
2013-04-07 00:20:00,53.0,25.3,30.09,WNW,292,1.0,3.0,34,0.00,CLR,,0.00,WeatherDisplay:10.37,2013-04-07 07:20:00,
2013-04-07 00:30:00,55.0,24.9,30.07,WSW,247,0.0,6.0,31,0.00,CLR,,0.00,WeatherDisplay:10.37,2013-04-07 07:30:00,
2013-04-07 00:40:00,54.0,25.5,30.08,WSW,247,0.0,3.0,33,0.00,CLR,,0.00,WeatherDisplay:10.37,2013-04-07 07:40:00,
2013-04-07 00:50:00,53.0,25.3,30.09,WSW,257,2.0,4.0,34,0.00,CLR,,0.00,WeatherDisplay:10.37,2013-04-07 07:50:00,
2013-04-07 01:00:00,54.0,25.5,30.08,West,270,0.0,6.0,33,0.00,CLR,,0.00,WeatherDisplay:10.37,2013-04-07 08:00:00,
2013-04-07 01:10:00,52.0,23.8,30.09,South,178,2.0,5.0,33,0.00,CLR,,0.00,WeatherDisplay:10.37,2013-04-07 08:10:00,
2013-04-07 01:20:00,51.0,23.6,30.10,South,180,2.0,5.0,34,0.00,CLR,,0.00,WeatherDisplay:10.37,2013-04-07 08:20:00,
2013-04-07 01:30:00,51.0,24.3,30.10,South,180,1.0,4.0,35,0.00,CLR,,0.00,WeatherDisplay:10.37,2013-04-07 08:30:00,
2013-04-07 01:40:00,50.0,23.4,30.09,East,86,2.0,6.0,35,0.00,CLR,,0.00,WeatherDisplay:10.37,2013-04-07 08:40:00,
2013-04-07 01:50:00,49.0,24.5,30.11,ENE,67,2.0,6.0,38,0.00,CLR,,0.00,WeatherDisplay:10.37,2013-04-07 08:50:00,
2013-04-07 02:00:00,49.0,23.8,30.10,ENE,67,2.0,4.0,37,0.00,CLR,,0.00,WeatherDisplay:10.37,2013-04-07 09:00:00,
2013-04-07 02:10:00,48.0,22.9,30.10,ENE,67,0.0,3.0,37,0.00,CLR,,0.00,WeatherDisplay:10.37,2013-04-07 09:10:00,
2013-04-07 02:20:00,48.0,23.6,30.10,North,360,1.0,3.0,38,0.00,CLR,,0.00,WeatherDisplay:10.37,2013-04-07 09:20:00,
2013-04-07 02:30:00,47.0,23.3,30.10,North,360,0.0,2.0,39,0.00,CLR,,0.00,WeatherDisplay:10.37,2013-04-07 09:30:00,
2013-04-07 02:40:00,47.0,23.9,30.09,North,360,0.0,0.0,40,0.00,CLR,,0.00,WeatherDisplay:10.37,2013-04-07 09:40:00,
2013-04-07 02:50:00,47.0,23.9,30.09,North,360,0.0,6.0,40,0.00,CLR,,0.00,WeatherDisplay:10.37,2013-04-07 09:50:00,
2013-04-07 03:00:00,47.0,22.7,30.09,North,360,0.0,2.0,38,0.00,CLR,,0.00,WeatherDisplay:10.37,2013-04-07 10:00:00,
2013-04-07 03:10:00,46.0,23.0,30.09,North,360,0.0,0.0,40,0.00,CLR,,0.00,WeatherDisplay:10.37,2013-04-07 10:10:00,
2013-04-07 03:20:00,45.0,23.8,30.10,North,360,0.0,0.0,43,0.00,CLR,,0.00,WeatherDisplay:10.37,2013-04-07 10:20:00,
2013-04-07 03:30:00,44.0,23.5,30.10,North,360,0.0,2.0,44,0.00,CLR,,0.00,WeatherDisplay:10.37,2013-04-07 10:30:00,
2013-04-07 03:40:00,44.0,23.5,30.10,North,360,0.0,4.0,44,0.00,CLR,,0.00,WeatherDisplay:10.37,2013-04-07 10:40:00,
2013-04-07 03:50:00,44.0,24.0,30.10,North,360,1.0,5.0,45,0.00,CLR,,0.00,WeatherDisplay:10.37,2013-04-07 10:50:00,
2013-04-07 04:00:00,44.0,24.0,30.10,North,360,0.0,0.0,45,0.00,CLR,,0.00,WeatherDisplay:10.37,2013-04-07 11:00:00,
2013-04-07 04:10:00,44.0,23.5,30.10,North,350,2.0,4.0,44,0.00,CLR,,0.00,WeatherDisplay:10.37,2013-04-07 11:10:00,
2013-04-07 04:20:00,44.0,23.5,30.10,NW,315,0.0,3.0,44,0.00,CLR,,0.00,WeatherDisplay:10.37,2013-04-07 11:20:00,
2013-04-07 04:30:00,44.0,24.5,30.10,NW,315,0.0,4.0,46,0.00,CLR,,0.00,WeatherDisplay:10.37,2013-04-07 11:30:00,
2013-04-07 04:40:00,43.0,23.6,30.09,NW,315,1.0,5.0,46,0.00,CLR,,0.00,WeatherDisplay:10.37,2013-04-07 11:40:00,
2013-04-07 04:50:00,43.0,24.1,30.10,NW,315,0.0,3.0,47,0.00,CLR,,0.00,WeatherDisplay:10.37,2013-04-07 11:50:00,
2013-04-07 05:00:00,42.0,25.6,30.11,NW,315,0.0,1.0,52,0.00,CLR,,0.00,WeatherDisplay:10.37,2013-04-07 12:00:00,
2013-04-07 05:10:00,42.0,24.7,30.11,NW,315,0.0,1.0,50,0.00,CLR,,0.00,WeatherDisplay:10.37,2013-04-07 12:10:00,
2013-04-07 05:20:00,41.0,24.2,30.11,NW,315,0.0,0.0,51,0.00,CLR,,0.00,WeatherDisplay:10.37,2013-04-07 12:20:00,
2013-04-07 05:30:00,42.0,24.7,30.11,NW,315,0.0,0.0,50,0.00,CLR,,0.00,WeatherDisplay:10.37,2013-04-07 12:30:00,
2013-04-07 05:50:00,42.0,24.2,30.11,NW,315,0.0,0.0,49,0.00,CLR,,0.00,WeatherDisplay:10.37,2013-04-07 12:50:00,
2013-04-07 06:00:00,41.0,24.2,30.13,NW,315,0.0,0.0,51,0.00,CLR,,0.00,WeatherDisplay:10.37,2013-04-07 13:00:00,
2013-04-07 06:10:00,41.0,26.5,30.13,NW,315,0.0,0.0,56,0.00,CLR,,0.00,WeatherDisplay:10.37,2013-04-07 13:10:00,
2013-04-07 06:20:00,42.0,27.0,30.12,NW,315,0.0,2.0,55,0.00,CLR,,0.00,WeatherDisplay:10.37,2013-04-07 13:20:00,
2013-04-07 06:30:00,45.0,27.0,30.12,NW,322,1.0,3.0,49,0.00,CLR,,0.00,WeatherDisplay:10.37,2013-04-07 13:30:00,
2013-04-07 06:40:00,45.0,27.5,30.11,North,350,0.0,2.0,50,0.00,CLR,,0.00,WeatherDisplay:10.37,2013-04-07 13:40:00,
2013-04-07 06:50:00,47.0,29.3,30.11,North,360,3.0,4.0,50,0.00,CLR,,0.00,WeatherDisplay:10.37,2013-04-07 13:50:00,
2013-04-07 07:10:00,51.0,29.3,30.09,North,360,3.0,5.0,43,0.00,CLR,,0.00,WeatherDisplay:10.37,2013-04-07 14:10:00,
2013-04-07 07:20:00,53.0,30.5,30.08,North,360,0.0,5.0,42,0.00,CLR,,0.00,WeatherDisplay:10.37,2013-04-07 14:20:00,
2013-04-07 07:30:00,56.0,31.4,30.07,North,360,0.0,2.0,39,0.00,CLR,,0.00,WeatherDisplay:10.37,2013-04-07 14:30:00,
2013-04-07 07:40:00,58.0,31.8,30.06,NE,45,1.0,4.0,37,0.00,CLR,,0.00,WeatherDisplay:10.37,2013-04-07 14:40:00,
2013-04-07 07:50:00,60.0,32.2,30.05,ENE,72,2.0,5.0,35,0.00,CLR,,0.00,WeatherDisplay:10.37,2013-04-07 14:50:00,
2013-04-07 08:00:00,61.0,31.7,30.05,SE,130,1.0,6.0,33,0.00,CLR,,0.00,WeatherDisplay:10.37,2013-04-07 15:00:00,
2013-04-07 08:10:00,61.0,30.1,30.05,SSE,161,5.0,7.0,31,0.00,CLR,,0.00,WeatherDisplay:10.37,2013-04-07 15:10:00,
2013-04-07 08:20:00,62.0,30.2,30.05,South,180,5.0,8.0,30,0.00,CLR,,0.00,WeatherDisplay:10.37,2013-04-07 15:20:00,
2013-04-07 08:30:00,63.0,30.2,30.05,South,191,6.0,8.0,29,0.00,CLR,,0.00,WeatherDisplay:10.37,2013-04-07 15:30:00,
2013-04-07 08:40:00,65.3,32.2,30.03,South,177,5.0,8.0,29,0.00,CLR,,0.00,WeatherDisplay:10.37,2013-04-07 15:40:00,
2013-04-07 09:00:00,69.0,33.6,30.01,South,174,5.0,7.0,27,0.00,CLR,,0.00,WeatherDisplay:10.37,2013-04-07 16:00:00,
2013-04-07 09:10:00,68.0,32.7,30.01,SSE,160,3.0,9.0,27,0.00,CLR,,0.00,WeatherDisplay:10.37,2013-04-07 16:10:00,
2013-04-07 09:20:00,70.0,32.5,30.00,SSE,156,2.0,9.0,25,0.00,CLR,,0.00,WeatherDisplay:10.37,2013-04-07 16:20:00,
2013-04-07 09:30:00,71.0,31.3,29.99,SSE,166,7.0,10.0,23,0.00,CLR,,0.00,WeatherDisplay:10.37,2013-04-07 16:30:00,
2013-04-07 09:40:00,72.0,31.0,29.99,SSE,165,5.0,10.0,22,0.00,CLR,,0.00,WeatherDisplay:10.37,2013-04-07 16:40:00,
2013-04-07 09:50:00,72.0,31.0,29.99,SSE,148,5.0,12.0,22,0.00,CLR,,0.00,WeatherDisplay:10.37,2013-04-07 16:50:00,
2013-04-07 10:00:00,73.0,29.5,29.99,South,177,3.0,12.0,20,0.00,CLR,,0.00,WeatherDisplay:10.37,2013-04-07 17:00:00,
2013-04-07 10:10:00,73.0,27.0,29.98,South,183,8.0,13.0,18,0.00,CLR,,0.00,WeatherDisplay:10.37,2013-04-07 17:10:00,
2013-04-07 10:20:00,73.0,28.3,29.99,SSE,152,2.0,12.0,19,0.00,CLR,,0.00,WeatherDisplay:10.37,2013-04-07 17:20:00,
2013-04-07 10:30:00,73.0,27.0,29.98,SSE,162,6.0,9.0,18,0.00,CLR,,0.00,WeatherDisplay:10.37,2013-04-07 17:30:00,
2013-04-07 10:40:00,74.0,26.4,29.98,South,180,3.0,12.0,17,0.00,CLR,,0.00,WeatherDisplay:10.37,2013-04-07 17:40:00,
2013-04-07 10:50:00,74.0,26.4,29.97,SSW,201,8.0,12.0,17,0.00,CLR,,0.00,WeatherDisplay:10.37,2013-04-07 17:50:00,
2013-04-07 11:00:00,75.0,27.2,29.97,South,172,3.0,12.0,17,0.00,CLR,,0.00,WeatherDisplay:10.37,2013-04-07 18:00:00,
2013-04-07 11:10:00,75.3,26.0,29.97,South,191,2.0,15.0,16,0.00,CLR,,0.00,WeatherDisplay:10.37,2013-04-07 18:10:00,
2013-04-07 11:20:00,76.0,26.5,29.96,SW,218,9.0,17.0,16,0.00,CLR,,0.00,WeatherDisplay:10.37,2013-04-07 18:20:00,
2013-04-07 11:30:00,76.0,26.5,29.95,South,189,3.0,10.0,16,0.00,CLR,,0.00,WeatherDisplay:10.37,2013-04-07 18:30:00,
2013-04-07 11:40:00,76.0,25.0,29.95,SW,217,5.0,10.0,15,0.00,CLR,,0.00,WeatherDisplay:10.37,2013-04-07 18:40:00,
2013-04-07 11:50:00,76.0,23.3,29.95,SW,229,7.0,15.0,14,0.00,CLR,,0.00,WeatherDisplay:10.37,2013-04-07 18:50:00,
2013-04-07 12:10:00,78.0,24.9,29.92,South,189,9.0,13.0,14,0.00,CLR,,0.00,WeatherDisplay:10.37,2013-04-07 19:10:00,
2013-04-07 12:20:00,77.0,24.1,29.93,SW,214,8.0,15.0,14,0.00,CLR,,0.00,WeatherDisplay:10.37,2013-04-07 19:20:00,
2013-04-07 12:30:00,77.3,24.3,29.92,SW,223,8.0,13.0,14,0.00,CLR,,0.00,WeatherDisplay:10.37,2013-04-07 19:30:00,
2013-04-07 12:40:00,78.0,23.1,29.91,SSW,200,7.0,12.0,13,0.00,CLR,,0.00,WeatherDisplay:10.37,2013-04-07 19:40:00,
2013-04-07 12:50:00,78.3,23.4,29.91,WSW,253,10.0,17.0,13,0.00,CLR,,0.00,WeatherDisplay:10.37,2013-04-07 19:50:00,
2013-04-07 13:00:00,79.0,23.9,29.90,SW,230,12.0,18.0,13,0.00,CLR,,0.00,WeatherDisplay:10.37,2013-04-07 20:00:00,
2013-04-07 13:10:00,78.0,23.1,29.90,WSW,239,10.0,20.0,13,0.00,CLR,,0.00,WeatherDisplay:10.37,2013-04-07 20:10:00,
2013-04-07 13:30:00,79.7,24.5,29.89,SSW,207,9.0,17.0,13,0.00,CLR,,0.00,WeatherDisplay:10.37,2013-04-07 20:30:00,
2013-04-07 13:40:00,79.0,23.9,29.89,SW,222,10.0,17.0,13,0.00,CLR,,0.00,WeatherDisplay:10.37,2013-04-07 20:40:00,
2013-04-07 13:50:00,79.0,23.9,29.87,WSW,256,9.0,26.0,13,0.00,CLR,,0.00,WeatherDisplay:10.37,2013-04-07 20:50:00,
2013-04-07 14:00:00,80.0,24.7,29.87,WSW,244,8.0,15.0,13,0.00,CLR,,0.00,WeatherDisplay:10.37,2013-04-07 21:00:00,
2013-04-07 14:10:00,81.0,25.5,29.86,SSW,210,9.0,20.0,13,0.00,CLR,,0.00,WeatherDisplay:10.37,2013-04-07 21:10:00,
2013-04-07 14:20:00,80.0,24.7,29.87,WSW,243,6.0,17.0,13,0.00,CLR,,0.00,WeatherDisplay:10.37,2013-04-07 21:20:00,
2013-04-07 14:30:00,80.0,22.8,29.85,SW,216,10.0,18.0,12,0.00,CLR,,0.00,WeatherDisplay:10.37,2013-04-07 21:30:00,
2013-04-07 14:40:00,81.0,23.6,29.85,SW,220,9.0,17.0,12,0.00,CLR,,0.00,WeatherDisplay:10.37,2013-04-07 21:40:00,
2013-04-07 14:50:00,81.0,21.5,29.85,WSW,250,13.0,18.0,11,0.00,CLR,,0.00,WeatherDisplay:10.37,2013-04-07 21:50:00,
2013-04-07 15:00:00,80.0,20.7,29.84,WSW,249,12.0,20.0,11,0.00,CLR,,0.00,WeatherDisplay:10.37,2013-04-07 22:00:00,
2013-04-07 15:10:00,81.0,23.6,29.84,West,264,15.0,20.0,12,0.00,CLR,,0.00,WeatherDisplay:10.37,2013-04-07 22:10:00,
2013-04-07 15:20:00,80.0,24.7,29.84,West,259,12.0,20.0,13,0.00,CLR,,0.00,WeatherDisplay:10.37,2013-04-07 22:20:00,
2013-04-07 15:30:00,80.0,22.8,29.83,West,272,12.0,18.0,12,0.00,CLR,,0.00,WeatherDisplay:10.37,2013-04-07 22:30:00,
2013-04-07 15:40:00,80.0,22.8,29.84,West,271,14.0,20.0,12,0.00,CLR,,0.00,WeatherDisplay:10.37,2013-04-07 22:40:00,
2013-04-07 15:50:00,80.3,24.9,29.83,West,271,10.0,22.0,13,0.00,CLR,,0.00,WeatherDisplay:10.37,2013-04-07 22:50:00,
2013-04-07 16:10:00,80.0,22.8,29.83,West,272,15.0,21.0,12,0.00,CLR,,0.00,WeatherDisplay:10.37,2013-04-07 23:10:00,
2013-04-07 16:20:00,80.0,24.7,29.84,West,260,13.0,20.0,13,0.00,CLR,,0.00,WeatherDisplay:10.37,2013-04-07 23:20:00,
2013-04-07 16:30:00,80.0,24.7,29.84,WSW,255,14.0,20.0,13,0.00,CLR,,0.00,WeatherDisplay:10.37,2013-04-07 23:30:00,
2013-04-07 16:40:00,80.0,24.7,29.84,WSW,253,12.0,20.0,13,0.00,CLR,,0.00,WeatherDisplay:10.37,2013-04-07 23:40:00,
2013-04-07 16:50:00,79.3,24.1,29.84,West,266,12.0,20.0,13,0.00,CLR,,0.00,WeatherDisplay:10.37,2013-04-07 23:50:00,
2013-04-07 17:00:00,79.0,23.9,29.83,West,269,10.0,20.0,13,0.00,CLR,,0.00,WeatherDisplay:10.37,2013-04-08 00:00:00,
2013-04-07 17:10:00,79.0,23.9,29.84,WSW,257,12.0,17.0,13,0.00,CLR,,0.00,WeatherDisplay:10.37,2013-04-08 00:10:00,
2013-04-07 17:20:00,78.0,23.1,29.84,WSW,258,14.0,20.0,13,0.00,CLR,,0.00,WeatherDisplay:10.37,2013-04-08 00:20:00,
2013-04-07 17:30:00,78.0,24.9,29.85,West,261,10.0,17.0,14,0.00,CLR,,0.00,WeatherDisplay:10.37,2013-04-08 00:30:00,
2013-04-07 17:40:00,77.7,24.7,29.85,WSW,250,10.0,16.0,14,0.00,CLR,,0.00,WeatherDisplay:10.37,2013-04-08 00:40:00,
2013-04-07 17:50:00,77.0,25.8,29.85,WSW,255,14.0,20.0,15,0.00,CLR,,0.00,WeatherDisplay:10.37,2013-04-08 00:50:00,
2013-04-07 18:20:00,75.0,25.7,29.87,West,265,13.0,20.0,16,0.00,CLR,,0.00,WeatherDisplay:10.37,2013-04-08 01:20:00,
2013-04-07 18:40:00,73.0,27.0,29.88,West,262,10.0,16.0,18,0.00,CLR,,0.00,WeatherDisplay:10.37,2013-04-08 01:40:00,
2013-04-07 18:50:00,72.0,26.1,29.88,WSW,254,8.0,15.0,18,0.00,CLR,,0.00,WeatherDisplay:10.37,2013-04-08 01:50:00,
2013-04-07 19:00:00,71.7,27.2,29.89,WSW,249,9.0,14.0,19,0.00,CLR,,0.00,WeatherDisplay:10.37,2013-04-08 02:00:00,
2013-04-07 19:10:00,71.0,26.6,29.89,WSW,252,8.0,12.0,19,0.00,CLR,,0.00,WeatherDisplay:10.37,2013-04-08 02:10:00,
2013-04-07 19:20:00,71.0,27.9,29.90,WSW,250,8.0,13.0,20,0.00,CLR,,0.00,WeatherDisplay:10.37,2013-04-08 02:20:00,
2013-04-07 19:30:00,70.0,27.0,29.91,WSW,247,7.0,13.0,20,0.00,CLR,,0.00,WeatherDisplay:10.37,2013-04-08 02:30:00,
2013-04-07 19:40:00,69.0,26.2,29.91,WSW,247,6.0,9.0,20,0.00,CLR,,0.00,WeatherDisplay:10.37,2013-04-08 02:40:00,
2013-04-07 19:50:00,68.0,26.6,29.92,WSW,247,6.0,10.0,21,0.00,CLR,,0.00,WeatherDisplay:10.37,2013-04-08 02:50:00,
2013-04-07 20:00:00,67.0,26.9,29.92,WSW,247,6.0,10.0,22,0.00,CLR,,0.00,WeatherDisplay:10.37,2013-04-08 03:00:00,
2013-04-07 20:10:00,66.7,26.6,29.93,WSW,247,5.0,8.0,22,0.00,CLR,,0.00,WeatherDisplay:10.37,2013-04-08 03:10:00,
2013-04-07 20:30:00,65.0,26.3,29.94,WSW,247,3.0,6.0,23,0.00,CLR,,0.00,WeatherDisplay:10.37,2013-04-08 03:30:00,
2013-04-07 20:40:00,64.0,26.4,29.94,WSW,247,3.0,5.0,24,0.00,CLR,,0.00,WeatherDisplay:10.37,2013-04-08 03:40:00,
2013-04-07 20:50:00,63.0,24.6,29.94,WSW,247,1.0,3.0,23,0.00,CLR,,0.00,WeatherDisplay:10.37,2013-04-08 03:50:00,
2013-04-07 21:00:00,62.0,26.7,29.95,SW,216,5.0,6.0,26,0.00,CLR,,0.00,WeatherDisplay:10.37,2013-04-08 04:00:00,
2013-04-07 21:10:00,62.0,24.8,29.95,SW,225,5.0,6.0,24,0.00,CLR,,0.00,WeatherDisplay:10.37,2013-04-08 04:10:00,
2013-04-07 21:20:00,63.0,25.6,29.95,SW,235,7.0,10.0,24,0.00,CLR,,0.00,WeatherDisplay:10.37,2013-04-08 04:20:00,
2013-04-07 21:30:00,64.0,27.4,29.94,SW,233,7.0,9.0,25,0.00,CLR,,0.00,WeatherDisplay:10.37,2013-04-08 04:30:00,
2013-04-07 21:40:00,64.0,26.4,29.93,SW,225,6.0,10.0,24,0.00,CLR,,0.00,WeatherDisplay:10.37,2013-04-08 04:40:00,
2013-04-07 21:50:00,62.7,25.4,29.95,SW,225,0.0,7.0,24,0.00,CLR,,0.00,WeatherDisplay:10.37,2013-04-08 04:50:00,
2013-04-07 22:00:00,59.0,25.9,29.96,South,183,1.0,4.0,28,0.00,CLR,,0.00,WeatherDisplay:10.37,2013-04-08 05:00:00,
2013-04-07 22:10:00,58.0,25.0,29.96,SE,136,1.0,5.0,28,0.00,CLR,,0.00,WeatherDisplay:10.37,2013-04-08 05:10:00,
2013-04-07 22:20:00,58.0,25.0,29.97,ESE,113,0.0,4.0,28,0.00,CLR,,0.00,WeatherDisplay:10.37,2013-04-08 05:20:00,
2013-04-07 22:30:00,57.0,24.2,29.97,ESE,112,0.0,6.0,28,0.00,CLR,,0.00,WeatherDisplay:10.37,2013-04-08 05:30:00,
2013-04-07 22:40:00,56.0,24.2,29.97,ESE,112,0.0,2.0,29,0.00,CLR,,0.00,WeatherDisplay:10.37,2013-04-08 05:40:00,
2013-04-07 22:50:00,56.3,24.4,29.97,South,169,3.0,7.0,29,0.00,CLR,,0.00,WeatherDisplay:10.37,2013-04-08 05:50:00,
2013-04-07 23:00:00,59.0,25.0,29.95,SSE,153,1.0,10.0,27,0.00,CLR,,0.00,WeatherDisplay:10.37,2013-04-08 06:00:00,
2013-04-07 23:10:00,56.7,23.9,29.96,SE,135,0.0,3.0,28,0.00,CLR,,0.00,WeatherDisplay:10.37,2013-04-08 06:10:00,
2013-04-07 23:20:00,55.0,23.3,29.97,ESE,112,2.0,7.0,29,0.00,CLR,,0.00,WeatherDisplay:10.37,2013-04-08 06:20:00,
2013-04-07 23:30:00,54.0,23.2,29.97,SE,128,1.0,4.0,30,0.00,CLR,,0.00,WeatherDisplay:10.37,2013-04-08 06:30:00,
2013-04-07 23:40:00,53.0,22.4,29.97,SSE,157,0.0,2.0,30,0.00,CLR,,0.00,WeatherDisplay:10.37,2013-04-08 06:40:00,
2013-04-07 23:50:00,53.0,23.9,29.97,ESE,120,3.0,6.0,32,0.00,CLR,,0.00,WeatherDisplay:10.37,2013-04-08 06:50:00,